Home   Weather   Yakutsk   Past weeks

Flag for Russia Past Weather in Yakutsk, Russia — Yesterday and Last 2 Weeks

Now
-31 °F

Light snow. Scattered clouds.


Feels Like: -31 °F
Forecast: -41 / -35 °F
Wind: No wind

Location: Jakutsk

Current Time: Jan 18, 2017 at 11:12:20 am

Latest Report: Jan 18, 2017 at 10:30 am


Visibility: 3 mi

Pressure: 30.57 "Hg

Humidity: 67%

Dew Point: -38 °F

Location of YakutskLocation

Past Weather in Yakutsk — Graph

°F

Yakutsk Temperature Yesterday

Maximum temperature yesterday: -29 °F (at 8:30 pm)
Minimum temperature yesterday: -40 °F (at 6:30 am)
Average temperature yesterday: -35 °F

High & Low Weather Summary for the Past Weeks

 TemperatureHumidityPressure
High1 °F (Jan 5, 1:00 am)85% (Jan 5, 1:00 am)30.83 "Hg (Jan 5, 1:00 am)
Low-56 °F (Jan 11, 9:30 am)54% (Jan 11, 9:30 am)29.62 "Hg (Jan 4, 10:30 pm)
Average-35 °F66%30.35 "Hg
* Reported Jan 3 10:00 am — Jan 18 10:00 am, Yakutsk, Weather by CustomWeather, © 2017

Note: Actual official high and low records may vary slightly from our data, if they occured in-between our weather recording intervals... More about our weather records

Advertising

Yakutsk Weather History for the Previous 24 Hours

Scroll right to see more
 ConditionsComfort  
Time TempWeatherWind HumidityBarometerVisibility
10:00 am
Wed, Jan 18
-31 °FLight snow. Scattered clouds.No wind67%30.60 "HgN/A
9:30 am-31 °FLight snow. Scattered clouds.No wind67%30.60 "HgN/A
9:00 am-31 °FLight snow. Clear.No wind67%30.60 "HgN/A
8:30 am-33 °FLight snow. Clear.No wind74%30.60 "HgN/A
8:00 am-31 °FLight snow. Clear.No wind67%30.60 "HgN/A
7:30 am-31 °FLight snow. Clear.No wind67%30.57 "HgN/A
7:00 am-31 °FLight snow. Clear.No wind67%30.57 "HgN/A
6:30 am-31 °FLight snow. Clear.No wind67%30.57 "HgN/A
6:00 am-31 °FLight snow. Clear.No wind67%30.60 "HgN/A
5:30 am-31 °FLight snow. Clear.1 mph67%30.60 "HgN/A
5:00 am-31 °FLight snow. Clear.No wind67%30.60 "HgN/A
4:30 am-31 °FLight snow. Clear.No wind67%30.60 "HgN/A
4:00 am-31 °FLight snow. Clear.1 mph67%30.60 "HgN/A
3:30 am-31 °FLight snow. Clear.1 mph67%30.60 "HgN/A
3:00 am-31 °FLight snow. Clear.1 mph74%30.60 "HgN/A
2:30 am-29 °FLight snow. Clear.1 mph67%30.60 "HgN/A
2:00 am-29 °FLight snow. Clear.1 mph67%30.60 "HgN/A
1:30 am-31 °FLight snow. Clear.1 mph74%30.60 "HgN/A
1:00 am-31 °FLight snow. Clear.1 mph74%30.60 "HgN/A
12:30 am-31 °FLight snow. Clear.1 mph74%30.60 "HgN/A
12:00 am-31 °FLight snow. Clear.1 mph67%30.57 "HgN/A
11:30 pm
Tue, Jan 17
-29 °FLight snow. Clear.1 mph67%30.57 "HgN/A
11:00 pm-29 °FLight snow. Clear.1 mph67%30.57 "HgN/A
10:30 pm-29 °FLight snow. Clear.1 mph67%30.57 "HgN/A
10:00 pm-29 °FLight snow. Clear.1 mph67%30.57 "HgN/A
9:30 pm-29 °FLight snow. Clear.1 mph67%30.57 "HgN/A
9:00 pm-29 °FLight snow. Clear.No wind67%30.57 "HgN/A
8:30 pm-29 °FLight snow. Clear.No wind67%30.57 "HgN/A
8:00 pm-31 °FLight snow. Clear.No wind67%30.57 "HgN/A
7:30 pm-31 °FLight snow. Clear.No wind67%30.57 "HgN/A
7:00 pm-31 °FLight snow. Clear.No wind67%30.57 "HgN/A
6:30 pm-31 °FLight snow. Clear.1 mph67%30.57 "HgN/A
6:00 pm-31 °FLight snow. Clear.No wind67%30.57 "HgN/A
5:30 pm-31 °FLight snow. Clear.1 mph67%30.57 "HgN/A
5:00 pm-31 °FLight snow. Clear.No wind67%30.57 "HgN/A
4:30 pm-31 °FLight snow. Clear.No wind67%30.57 "HgN/A
4:00 pm-33 °FLight snow. Clear.No wind74%30.57 "HgN/A
3:30 pm-33 °FLight snow. Clear.No wind66%30.57 "HgN/A
3:00 pm-33 °FLight snow. Clear.No wind66%30.57 "HgN/A
2:30 pm-33 °FIce fog.1 mph66%30.57 "Hg3 mi
2:00 pm-33 °FIce fog.1 mph66%30.57 "Hg3 mi
1:30 pm-33 °FIce fog.No wind66%30.57 "Hg3 mi
1:00 pm-33 °FIce fog.No wind66%30.57 "Hg3 mi
12:30 pm-33 °FIce fog.No wind66%30.57 "Hg1 mi
12:00 pm-35 °FIce fog.No wind66%30.57 "Hg1 mi
11:30 am-35 °FIce fog.No wind66%30.57 "Hg1 mi
11:00 am-36 °FIce fog.No wind66%30.57 "Hg1 mi
Weather by CustomWeather, © 2017

See weather overviewHow to use our weather pages